QPF
0.00 0.02 0.02 0.01 0.00 0.00 0.00 0.00 0.00 0.01 0.01 0.01 0.01 0.02 0.01 0.00 0.01 0.00 0.00 0.01 0.04 0.02 0.01 0.01 0.01 0.01 0.01 0.02 0.04 0.04 0.05 0.06 0.07 0.07 0.07 0.07 0.06 0.05 0.05 0.05 0.06 0.07 0.06 0.07
0.01 0.01 0.02 0.01 0.00 0.00 0.00 0.00 0.00 0.00 0.00 0.01 0.02 0.03 0.04 0.03 0.01 0.01 0.01 0.02 0.04 0.03 0.01 0.02 0.02 0.03 0.03 0.02 0.02 0.03 0.04 0.05 0.06 0.06 0.07 0.06 0.06 0.05 0.04 0.05 0.06 0.06 0.06 0.07
0.00 0.00 0.01 0.00 0.01 0.00 0.00 0.00 0.00 0.01 0.01 0.01 0.03 0.04 0.05 0.03 0.01 0.00 0.01 0.01 0.02 0.02 0.02 0.03 0.02 0.03 0.03 0.02 0.02 0.03 0.04 0.05 0.06 0.07 0.06 0.05 0.05 0.05 0.05 0.04 0.04 0.05 0.06 0.08
0.00 0.00 0.00 0.00 0.01 0.00 0.00 0.00 0.00 0.00 0.02 0.03 0.03 0.05 0.04 0.01 0.01 0.01 0.02 0.02 0.02 0.02 0.02 0.03 0.04 0.05 0.04 0.03 0.03 0.04 0.05 0.05 0.05 0.04 0.04 0.04 0.05 0.05 0.05 0.05 0.06 0.06 0.05 0.06
0.00 0.00 0.00 0.00 0.00 0.00 0.00 0.00 0.00 0.00 0.03 0.05 0.05 0.04 0.04 0.02 0.02 0.01 0.01 0.02 0.02 0.01 0.02 0.02 0.04 0.07 0.06 0.04 0.04 0.04 0.05 0.06 0.04 0.03 0.04 0.05 0.07 0.06 0.07 0.07 0.07 0.06 0.07 0.07
0.00 0.00 0.00 0.00 0.00 0.00 0.00 0.00 0.01 0.02 0.04 0.06 0.04 0.03 0.04 0.04 0.02 0.01 0.01 0.01 0.02 0.01 0.02 0.01 0.03 0.06 0.08 0.08 0.06 0.05 0.04 0.04 0.03 0.03 0.03 0.05 0.07 0.06 0.06 0.06 0.08 0.09 0.09 0.10
0.00 0.00 0.00 0.00 0.00 0.00 0.00 0.03 0.07 0.06 0.06 0.05 0.02 0.02 0.03 0.03 0.02 0.02 0.01 0.01 0.02 0.02 0.01 0.01 0.02 0.05 0.07 0.07 0.05 0.05 0.04 0.04 0.03 0.03 0.04 0.05 0.05 0.05 0.05 0.05 0.06 0.09 0.10 0.10
0.01 0.01 0.00 0.00 0.00 0.00 0.00 0.03 0.05 0.05 0.05 0.05 0.02 0.03 0.02 0.01 0.01 0.01 0.00 0.01 0.01 0.01 0.01 0.00 0.01 0.02 0.05 0.06 0.05 0.05 0.04 0.05 0.05 0.04 0.04 0.04 0.04 0.05 0.04 0.04 0.04 0.05 0.06 0.09
0.01 0.01 0.00 0.00 0.00 0.00 0.00 0.01 0.01 0.03 0.03 0.06 0.05 0.04 0.02 0.01 0.01 0.01 0.00 0.00 0.01 0.01 0.01 0.00 0.01 0.01 0.02 0.05 0.05 0.04 0.04 0.04 0.05 0.04 0.04 0.04 0.05 0.06 0.04 0.04 0.04 0.03 0.04 0.05
0.01 0.01 0.00 0.00 0.00 0.00 0.00 0.00 0.02 0.04 0.06 0.06 0.06 0.06 0.04 0.02 0.03 0.04 0.03 0.03 0.01 0.01 0.01 0.01 0.01 0.02 0.01 0.03 0.04 0.04 0.04 0.03 0.03 0.03 0.03 0.04 0.05 0.05 0.04 0.04 0.03 0.03 0.04 0.05
0.00 0.01 0.00 0.01 0.00 0.00 0.00 0.01 0.02 0.04 0.04 0.06 0.07 0.08 0.05 0.02 0.02 0.04 0.04 0.03 0.01 0.02 0.03 0.02 0.02 0.02 0.03 0.04 0.05 0.04 0.04 0.03 0.04 0.03 0.04 0.05 0.05 0.04 0.03 0.02 0.03 0.04 0.05 0.05
0.00 0.00 0.00 0.00 0.00 0.00 0.00 0.01 0.02 0.06 0.06 0.05 0.07 0.06 0.01 0.02 0.03 0.03 0.04 0.03 0.03 0.04 0.04 0.03 0.02 0.03 0.04 0.04 0.05 0.04 0.03 0.02 0.03 0.04 0.04 0.05 0.05 0.05 0.04 0.04 0.04 0.04 0.05 0.06
0.00 0.01 0.01 0.02 0.02 0.00 0.00 0.00 0.00 0.01 0.04 0.06 0.08 0.07 0.02 0.02 0.02 0.02 0.04 0.07 0.05 0.05 0.07 0.05 0.03 0.03 0.03 0.05 0.05 0.03 0.02 0.02 0.02 0.02 0.02 0.03 0.03 0.04 0.04 0.06 0.06 0.05 0.05 0.04
0.00 0.01 0.02 0.05 0.03 0.01 0.01 0.01 0.00 0.02 0.04 0.05 0.05 0.05 0.03 0.03 0.02 0.01 0.02 0.04 0.07 0.07 0.07 0.12 0.06 0.04 0.04 0.05 0.05 0.02 0.01 0.01 0.01 0.01 0.01 0.02 0.03 0.04 0.04 0.04 0.05 0.06 0.05 0.04
0.00 0.00 0.01 0.01 0.00 0.00 0.00 0.01 0.01 0.01 0.02 0.03 0.02 0.03 0.02 0.02 0.02 0.01 0.02 0.02 0.03 0.05 0.05 0.09 0.11 0.06 0.04 0.04 0.04 0.02 0.01 0.01 0.01 0.01 0.01 0.02 0.03 0.04 0.04 0.04 0.05 0.05 0.06 0.04
0.01 0.01 0.00 0.00 0.00 0.00 0.00 0.00 0.00 0.00 0.00 0.01 0.02 0.03 0.01 0.00 0.01 0.01 0.01 0.02 0.03 0.04 0.04 0.04 0.04 0.05 0.05 0.04 0.03 0.02 0.01 0.01 0.01 0.02 0.02 0.01 0.02 0.03 0.03 0.03 0.04 0.05 0.06 0.06
0.01 0.01 0.02 0.02 0.01 0.01 0.02 0.01 0.00 0.00 0.01 0.01 0.03 0.04 0.01 0.01 0.01 0.01 0.01 0.02 0.04 0.04 0.04 0.05 0.05 0.05 0.06 0.04 0.05 0.02 0.01 0.01 0.01 0.01 0.02 0.02 0.02 0.02 0.03 0.03 0.03 0.05 0.06 0.07
0.01 0.02 0.03 0.03 0.02 0.03 0.02 0.01 0.00 0.00 0.01 0.02 0.04 0.04 0.02 0.01 0.01 0.01 0.01 0.02 0.05 0.03 0.04 0.06 0.06 0.07 0.07 0.05 0.05 0.03 0.02 0.02 0.01 0.01 0.02 0.02 0.02 0.03 0.03 0.02 0.03 0.05 0.06 0.06
0.01 0.02 0.02 0.02 0.03 0.02 0.03 0.02 0.02 0.01 0.03 0.02 0.03 0.03 0.01 0.00 0.01 0.03 0.02 0.03 0.04 0.03 0.04 0.04 0.05 0.06 0.08 0.07 0.06 0.06 0.05 0.02 0.02 0.02 0.02 0.02 0.03 0.04 0.03 0.02 0.03 0.05 0.05 0.05
0.01 0.02 0.03 0.04 0.05 0.04 0.04 0.02 0.02 0.02 0.05 0.04 0.03 0.03 0.01 0.01 0.05 0.06 0.03 0.02 0.04 0.03 0.02 0.03 0.04 0.04 0.05 0.06 0.06 0.07 0.08 0.07 0.03 0.02 0.03 0.04 0.03 0.03 0.03 0.03 0.04 0.04 0.04 0.05
0.03 0.03 0.04 0.04 0.05 0.04 0.03 0.01 0.01 0.04 0.06 0.04 0.03 0.03 0.03 0.02 0.05 0.04 0.01 0.01 0.03 0.02 0.01 0.02 0.04 0.04 0.05 0.05 0.05 0.05 0.05 0.05 0.04 0.03 0.03 0.03 0.02 0.03 0.03 0.03 0.04 0.04 0.04 0.05
0.03 0.03 0.03 0.04 0.06 0.06 0.03 0.02 0.03 0.04 0.03 0.03 0.02 0.02 0.02 0.01 0.02 0.03 0.02 0.02 0.03 0.02 0.03 0.04 0.06 0.06 0.05 0.05 0.05 0.05 0.04 0.03 0.02 0.03 0.03 0.02 0.02 0.02 0.02 0.02 0.03 0.03 0.03 0.04
0.02 0.02 0.03 0.04 0.06 0.06 0.04 0.03 0.03 0.03 0.03 0.03 0.02 0.02 0.02 0.01 0.01 0.02 0.03 0.03 0.03 0.03 0.03 0.04 0.05 0.05 0.04 0.04 0.05 0.05 0.03 0.03 0.03 0.03 0.04 0.03 0.03 0.03 0.03 0.02 0.02 0.02 0.02 0.02
0.02 0.01 0.02 0.02 0.02 0.03 0.02 0.02 0.01 0.02 0.02 0.02 0.02 0.01 0.01 0.02 0.01 0.02 0.02 0.03 0.03 0.03 0.03 0.03 0.04 0.03 0.03 0.03 0.03 0.03 0.03 0.02 0.02 0.02 0.03 0.04 0.04 0.03 0.03 0.03 0.02 0.02 0.01 0.02
0.06 0.03 0.03 0.03 0.03 0.02 0.01 0.01 0.01 0.01 0.02 0.02 0.02 0.01 0.02 0.02 0.02 0.02 0.03 0.03 0.04 0.03 0.03 0.04 0.05 0.04 0.02 0.03 0.03 0.02 0.02 0.03 0.03 0.04 0.04 0.04 0.04 0.02 0.03 0.03 0.03 0.02 0.02 0.02
0.07 0.06 0.06 0.07 0.05 0.05 0.04 0.02 0.01 0.02 0.02 0.01 0.02 0.02 0.02 0.02 0.01 0.02 0.04 0.05 0.05 0.04 0.04 0.04 0.05 0.04 0.03 0.02 0.02 0.03 0.02 0.03 0.04 0.04 0.05 0.05 0.04 0.03 0.02 0.02 0.03 0.02 0.02 0.03
MSLP
1004.24 1004.74 1005.07 1005.23 1005.26 1005.20 1005.09 1004.98 1004.87 1004.77 1004.68 1004.61 1004.54 1004.50 1004.50 1004.56 1004.71 1004.97 1005.32 1005.77 1006.28 1006.82 1007.37 1007.89 1008.36 1008.78 1009.16 1009.51 1009.84 1010.15 1010.45 1010.73 1010.96 1011.14 1011.25 1011.29 1011.27 1011.22 1011.15 1011.10 1011.09 1011.12 1011.21 1011.32
1004.25 1004.54 1004.68 1004.69 1004.64 1004.58 1004.54 1004.55 1004.58 1004.62 1004.64 1004.60 1004.49 1004.35 1004.18 1004.05 1004.02 1004.11 1004.35 1004.75 1005.27 1005.89 1006.55 1007.20 1007.81 1008.36 1008.84 1009.27 1009.66 1010.01 1010.34 1010.65 1010.91 1011.11 1011.24 1011.29 1011.27 1011.19 1011.09 1010.98 1010.91 1010.90 1010.93 1011.02
1003.92 1004.01 1003.96 1003.85 1003.76 1003.74 1003.82 1004.00 1004.21 1004.41 1004.53 1004.51 1004.36 1004.07 1003.71 1003.35 1003.09 1002.98 1003.09 1003.42 1003.96 1004.65 1005.43 1006.24 1007.00 1007.69 1008.29 1008.81 1009.26 1009.67 1010.04 1010.39 1010.69 1010.94 1011.12 1011.20 1011.20 1011.12 1010.99 1010.85 1010.73 1010.66 1010.65 1010.71
1003.26 1003.15 1002.95 1002.76 1002.68 1002.75 1002.99 1003.36 1003.77 1004.14 1004.36 1004.37 1004.14 1003.70 1003.12 1002.52 1002.01 1001.70 1001.66 1001.92 1002.46 1003.23 1004.13 1005.09 1006.01 1006.84 1007.57 1008.18 1008.70 1009.17 1009.59 1009.99 1010.35 1010.66 1010.90 1011.04 1011.08 1011.02 1010.89 1010.73 1010.57 1010.45 1010.39 1010.41
1002.33 1002.06 1001.76 1001.54 1001.51 1001.70 1002.12 1002.70 1003.31 1003.84 1004.16 1004.18 1003.88 1003.29 1002.51 1001.67 1000.93 1000.43 1000.25 1000.44 1000.98 1001.81 1002.82 1003.91 1004.98 1005.94 1006.78 1007.48 1008.07 1008.58 1009.05 1009.50 1009.93 1010.31 1010.63 1010.85 1010.95 1010.93 1010.81 1010.62 1010.42 1010.25 1010.15 1010.12
1001.29 1000.90 1000.54 1000.34 1000.39 1000.72 1001.31 1002.08 1002.87 1003.54 1003.94 1003.98 1003.62 1002.91 1001.96 1000.93 1000.00 999.33 999.04 999.17 999.71 1000.59 1001.69 1002.89 1004.06 1005.13 1006.04 1006.81 1007.44 1008.00 1008.51 1009.01 1009.49 1009.95 1010.34 1010.64 1010.80 1010.83 1010.72 1010.53 1010.29 1010.07 1009.90 1009.82
1000.30 999.86 999.49 999.33 999.46 999.91 1000.64 1001.56 1002.49 1003.26 1003.73 1003.78 1003.38 1002.59 1001.53 1000.37 999.32 998.54 998.17 998.27 998.80 999.71 1000.87 1002.13 1003.38 1004.50 1005.46 1006.26 1006.91 1007.48 1008.02 1008.54 1009.07 1009.59 1010.05 1010.41 1010.64 1010.71 1010.62 1010.42 1010.14 1009.86 1009.62 1009.47
999.58 999.12 998.77 998.65 998.84 999.36 1000.18 1001.18 1002.18 1003.01 1003.50 1003.56 1003.15 1002.33 1001.23 1000.02 998.92 998.10 997.70 997.78 998.32 999.25 1000.43 1001.71 1002.98 1004.12 1005.08 1005.87 1006.52 1007.08 1007.61 1008.14 1008.70 1009.25 1009.76 1010.18 1010.45 1010.55 1010.48 1010.26 1009.95 1009.62 1009.31 1009.10
999.26 998.82 998.48 998.38 998.59 999.13 999.95 1000.94 1001.93 1002.75 1003.24 1003.30 1002.91 1002.11 1001.02 999.85 998.77 997.98 997.60 997.69 998.23 999.15 1000.32 1001.60 1002.84 1003.95 1004.89 1005.65 1006.26 1006.79 1007.29 1007.82 1008.37 1008.93 1009.46 1009.90 1010.21 1010.34 1010.27 1010.05 1009.72 1009.34 1008.98 1008.71
999.39 998.97 998.65 998.54 998.71 999.18 999.92 1000.82 1001.72 1002.47 1002.92 1002.97 1002.60 1001.85 1000.85 999.76 998.78 998.06 997.73 997.85 998.40 999.31 1000.45 1001.68 1002.88 1003.94 1004.83 1005.54 1006.11 1006.59 1007.06 1007.55 1008.07 1008.62 1009.14 1009.59 1009.91 1010.05 1010.00 1009.79 1009.45 1009.06 1008.67 1008.35
999.94 999.54 999.22 999.06 999.13 999.47 1000.05 1000.77 1001.52 1002.13 1002.50 1002.52 1002.18 1001.51 1000.63 999.67 998.81 998.20 997.95 998.11 998.67 999.55 1000.65 1001.82 1002.96 1003.97 1004.81 1005.48 1006.01 1006.46 1006.88 1007.33 1007.81 1008.32 1008.82 1009.25 1009.56 1009.71 1009.68 1009.49 1009.18 1008.80 1008.42 1008.09
1000.73 1000.35 1000.01 999.77 999.73 999.89 1000.26 1000.76 1001.29 1001.74 1001.99 1001.97 1001.65 1001.06 1000.29 999.48 998.76 998.27 998.10 998.30 998.86 999.72 1000.77 1001.89 1002.98 1003.95 1004.77 1005.42 1005.93 1006.36 1006.75 1007.16 1007.59 1008.04 1008.49 1008.88 1009.18 1009.33 1009.33 1009.18 1008.92 1008.60 1008.26 1007.96
1001.57 1001.21 1000.84 1000.53 1000.35 1000.34 1000.48 1000.75 1001.06 1001.32 1001.44 1001.35 1001.04 1000.52 999.86 999.17 998.58 998.19 998.10 998.33 998.88 999.70 1000.71 1001.80 1002.86 1003.82 1004.64 1005.31 1005.84 1006.28 1006.66 1007.03 1007.42 1007.81 1008.19 1008.53 1008.80 1008.95 1008.98 1008.89 1008.70 1008.46 1008.20 1007.96
1002.26 1001.94 1001.56 1001.21 1000.92 1000.75 1000.70 1000.76 1000.86 1000.93 1000.92 1000.76 1000.43 999.95 999.38 998.79 998.29 997.98 997.93 998.17 998.71 999.49 1000.47 1001.53 1002.59 1003.57 1004.43 1005.15 1005.74 1006.21 1006.61 1006.97 1007.31 1007.64 1007.95 1008.23 1008.45 1008.60 1008.65 1008.62 1008.52 1008.37 1008.21 1008.05
1002.71 1002.44 1002.09 1001.73 1001.39 1001.12 1000.94 1000.83 1000.76 1000.68 1000.55 1000.31 999.96 999.49 998.96 998.43 997.98 997.71 997.66 997.89 998.39 999.14 1000.08 1001.12 1002.19 1003.22 1004.15 1004.96 1005.62 1006.16 1006.60 1006.96 1007.27 1007.54 1007.79 1008.00 1008.17 1008.29 1008.36 1008.38 1008.36 1008.31 1008.24 1008.17
1002.91 1002.72 1002.45 1002.14 1001.82 1001.52 1001.26 1001.05 1000.86 1000.67 1000.44 1000.13 999.73 999.26 998.73 998.22 997.78 997.50 997.43 997.61 998.05 998.75 999.64 1000.67 1001.76 1002.84 1003.85 1004.74 1005.51 1006.13 1006.62 1007.00 1007.29 1007.51 1007.69 1007.83 1007.94 1008.03 1008.10 1008.15 1008.20 1008.23 1008.26 1008.27
1002.98 1002.90 1002.75 1002.54 1002.29 1002.03 1001.77 1001.52 1001.27 1001.01 1000.70 1000.32 999.88 999.37 998.82 998.28 997.82 997.49 997.36 997.47 997.84 998.45 999.28 1000.27 1001.36 1002.48 1003.55 1004.53 1005.38 1006.09 1006.64 1007.05 1007.34 1007.53 1007.65 1007.73 1007.78 1007.83 1007.88 1007.95 1008.03 1008.12 1008.21 1008.29
1003.13 1003.19 1003.18 1003.11 1002.97 1002.79 1002.58 1002.33 1002.06 1001.74 1001.38 1000.94 1000.44 999.89 999.29 998.71 998.20 997.80 997.59 997.60 997.86 998.37 999.10 1000.03 1001.08 1002.19 1003.29 1004.32 1005.24 1006.01 1006.62 1007.06 1007.36 1007.54 1007.63 1007.67 1007.68 1007.68 1007.71 1007.77 1007.87 1007.98 1008.11 1008.23
1003.58 1003.78 1003.93 1003.99 1003.98 1003.89 1003.73 1003.50 1003.22 1002.87 1002.45 1001.97 1001.41 1000.80 1000.16 999.53 998.95 998.48 998.17 998.07 998.20 998.58 999.19 1000.00 1000.96 1002.01 1003.08 1004.12 1005.06 1005.87 1006.51 1007.00 1007.32 1007.51 1007.60 1007.62 1007.61 1007.59 1007.60 1007.65 1007.73 1007.85 1008.00 1008.14
1004.50 1004.82 1005.09 1005.27 1005.35 1005.33 1005.20 1004.98 1004.68 1004.29 1003.82 1003.28 1002.68 1002.02 1001.34 1000.66 1000.03 999.49 999.09 998.88 998.88 999.10 999.55 1000.21 1001.03 1001.96 1002.94 1003.91 1004.82 1005.63 1006.30 1006.82 1007.18 1007.41 1007.53 1007.57 1007.57 1007.55 1007.55 1007.59 1007.66 1007.77 1007.91 1008.06
1005.90 1006.31 1006.66 1006.90 1007.02 1007.02 1006.89 1006.64 1006.29 1005.84 1005.32 1004.73 1004.08 1003.39 1002.68 1001.98 1001.32 1000.74 1000.27 999.96 999.83 999.90 1000.18 1000.64 1001.27 1002.03 1002.86 1003.72 1004.55 1005.32 1005.98 1006.52 1006.93 1007.22 1007.40 1007.49 1007.53 1007.55 1007.57 1007.61 1007.67 1007.77 1007.90 1008.04
1007.70 1008.14 1008.50 1008.74 1008.83 1008.79 1008.60 1008.28 1007.85 1007.33 1006.74 1006.10 1005.42 1004.73 1004.02 1003.33 1002.68 1002.09 1001.59 1001.22 1000.98 1000.91 1001.01 1001.27 1001.69 1002.23 1002.87 1003.57 1004.28 1004.96 1005.59 1006.14 1006.59 1006.95 1007.21 1007.38 1007.50 1007.58 1007.64 1007.69 1007.77 1007.86 1007.97 1008.11
1009.67 1010.09 1010.39 1010.56 1010.57 1010.42 1010.13 1009.70 1009.17 1008.57 1007.91 1007.23 1006.54 1005.85 1005.19 1004.55 1003.95 1003.40 1002.91 1002.52 1002.22 1002.03 1001.97 1002.05 1002.26 1002.58 1003.00 1003.51 1004.06 1004.64 1005.20 1005.74 1006.22 1006.63 1006.98 1007.25 1007.45 1007.61 1007.72 1007.82 1007.91 1008.00 1008.11 1008.24
1011.52 1011.86 1012.07 1012.12 1011.99 1011.71 1011.28 1010.73 1010.09 1009.40 1008.68 1007.98 1007.30 1006.65 1006.05 1005.50 1004.99 1004.53 1004.11 1003.74 1003.43 1003.18 1003.01 1002.93 1002.95 1003.07 1003.29 1003.59 1003.97 1004.42 1004.90 1005.39 1005.88 1006.33 1006.74 1007.09 1007.38 1007.61 1007.79 1007.93 1008.05 1008.15 1008.26 1008.38
1012.99 1013.23 1013.30 1013.20 1012.93 1012.50 1011.93 1011.25 1010.51 1009.75 1009.00 1008.29 1007.64 1007.06 1006.56 1006.12 1005.74 1005.40 1005.09 1004.80 1004.53 1004.28 1004.05 1003.88 1003.76 1003.71 1003.74 1003.87 1004.08 1004.38 1004.76 1005.18 1005.63 1006.09 1006.53 1006.94 1007.29 1007.58 1007.81 1007.99 1008.13 1008.24 1008.34 1008.46
1013.91 1014.02 1013.96 1013.71 1013.30 1012.74 1012.05 1011.28 1010.47 1009.66 1008.90 1008.21 1007.61 1007.11 1006.72 1006.41 1006.17 1005.97 1005.80 1005.63 1005.45 1005.25 1005.04 1004.83 1004.64 1004.48 1004.38 1004.36 1004.42 1004.58 1004.83 1005.16 1005.55 1005.97 1006.39 1006.80 1007.17 1007.49 1007.75 1007.95 1008.10 1008.22 1008.32 1008.41
Thickness
5797 5785 5775 5783 5794 5795 5796 5792 5790 5800 5812 5799 5789 5788 5793 5799 5794 5789 5786 5782 5777 5774 5775 5773 5770 5766 5762 5757 5753 5749 5746 5744 5742 5740 5737 5735 5734 5734 5734 5733 5732 5730 5729 5727
5787 5783 5796 5804 5802 5800 5796 5788 5790 5800 5808 5797 5785 5783 5792 5794 5791 5789 5785 5780 5775 5772 5770 5768 5764 5761 5757 5753 5749 5746 5743 5741 5740 5738 5736 5735 5734 5733 5732 5731 5729 5728 5726 5725
5782 5797 5811 5803 5797 5793 5793 5791 5791 5790 5797 5795 5780 5771 5781 5790 5794 5791 5789 5786 5780 5775 5767 5762 5759 5757 5754 5750 5747 5744 5741 5740 5738 5737 5735 5733 5731 5729 5728 5726 5725 5725 5724 5722
5795 5809 5807 5798 5793 5794 5786 5801 5798 5790 5779 5771 5774 5751 5773 5783 5783 5784 5785 5783 5779 5775 5769 5761 5757 5755 5752 5749 5746 5743 5739 5737 5736 5735 5732 5729 5726 5724 5724 5724 5723 5722 5721 5720
5793 5805 5802 5795 5799 5798 5793 5804 5795 5787 5775 5767 5772 5759 5766 5779 5770 5776 5781 5782 5780 5776 5770 5762 5758 5754 5752 5748 5744 5741 5737 5734 5733 5732 5730 5727 5725 5724 5724 5722 5720 5719 5718 5718
5800 5814 5812 5805 5809 5806 5802 5794 5785 5779 5769 5750 5768 5760 5757 5772 5771 5774 5779 5780 5777 5775 5770 5764 5760 5755 5750 5745 5741 5737 5734 5732 5731 5729 5728 5725 5722 5721 5720 5717 5716 5716 5715 5714
5787 5800 5812 5813 5796 5798 5792 5770 5748 5742 5742 5748 5777 5767 5763 5778 5782 5779 5777 5777 5776 5773 5768 5762 5756 5752 5748 5743 5739 5736 5732 5729 5728 5727 5725 5723 5722 5720 5717 5715 5714 5713 5711 5710
5770 5773 5798 5804 5793 5783 5782 5771 5743 5730 5736 5750 5768 5761 5770 5786 5787 5786 5782 5777 5775 5770 5767 5762 5756 5753 5748 5742 5739 5735 5731 5728 5727 5725 5723 5722 5720 5718 5717 5715 5713 5711 5709 5708
5767 5769 5799 5805 5804 5793 5776 5773 5778 5758 5751 5743 5753 5761 5769 5783 5779 5778 5775 5772 5769 5766 5764 5762 5758 5754 5749 5744 5739 5736 5731 5727 5725 5724 5721 5719 5718 5717 5714 5713 5711 5709 5707 5706
5778 5765 5787 5800 5801 5797 5790 5782 5768 5750 5731 5727 5740 5748 5751 5763 5766 5769 5766 5763 5765 5763 5761 5760 5757 5753 5750 5746 5741 5736 5731 5728 5725 5724 5721 5719 5716 5715 5713 5710 5708 5706 5704 5703
5779 5760 5770 5783 5776 5774 5778 5774 5764 5756 5748 5728 5720 5737 5767 5765 5767 5765 5764 5764 5763 5760 5756 5755 5755 5752 5749 5745 5740 5734 5730 5728 5725 5723 5720 5718 5715 5712 5710 5708 5706 5704 5702 5700
5777 5763 5753 5767 5787 5792 5783 5775 5765 5741 5738 5742 5729 5736 5775 5772 5771 5766 5763 5763 5761 5759 5756 5753 5751 5750 5746 5741 5738 5734 5730 5728 5725 5722 5719 5716 5713 5710 5707 5705 5704 5702 5700 5698
5768 5751 5735 5745 5758 5774 5771 5773 5771 5762 5749 5736 5725 5732 5766 5767 5764 5763 5760 5760 5757 5754 5752 5750 5747 5745 5743 5739 5736 5733 5730 5727 5725 5722 5718 5713 5710 5707 5705 5703 5702 5700 5698 5696
5766 5748 5733 5724 5738 5756 5756 5763 5767 5758 5740 5734 5733 5738 5750 5755 5752 5755 5756 5755 5752 5749 5746 5744 5742 5740 5739 5737 5734 5731 5728 5727 5724 5721 5716 5711 5708 5706 5704 5702 5700 5698 5696 5694
5759 5742 5742 5746 5756 5761 5760 5760 5762 5756 5752 5741 5741 5742 5747 5752 5751 5752 5751 5749 5747 5743 5741 5739 5737 5735 5735 5733 5731 5729 5727 5725 5722 5718 5713 5710 5707 5705 5702 5700 5698 5696 5694 5692
5750 5736 5737 5739 5752 5757 5756 5761 5761 5758 5756 5751 5747 5742 5752 5754 5753 5749 5746 5744 5740 5739 5738 5736 5735 5732 5730 5729 5727 5726 5724 5722 5719 5714 5711 5709 5706 5703 5700 5698 5696 5694 5692 5690
5740 5730 5723 5724 5742 5743 5738 5753 5755 5752 5753 5748 5737 5739 5750 5746 5745 5743 5742 5739 5737 5736 5735 5733 5730 5729 5728 5727 5725 5722 5721 5719 5715 5711 5709 5707 5703 5701 5699 5697 5694 5691 5689 5687
5732 5724 5719 5719 5722 5708 5737 5762 5759 5751 5748 5747 5744 5744 5744 5742 5741 5742 5741 5737 5733 5732 5731 5730 5728 5726 5726 5724 5722 5720 5717 5714 5711 5708 5706 5704 5701 5699 5697 5695 5692 5689 5687 5684
5738 5722 5713 5711 5709 5720 5736 5746 5746 5739 5732 5738 5735 5735 5739 5740 5737 5733 5735 5734 5730 5729 5728 5727 5726 5724 5722 5720 5719 5716 5712 5709 5706 5703 5702 5701 5699 5695 5693 5691 5688 5686 5683 5681
5735 5725 5710 5707 5699 5700 5716 5738 5747 5738 5717 5728 5729 5727 5729 5729 5716 5714 5726 5727 5725 5724 5724 5723 5721 5719 5716 5714 5714 5710 5706 5703 5700 5700 5699 5697 5696 5693 5690 5688 5686 5684 5681 5679
5710 5708 5701 5698 5696 5702 5718 5733 5736 5707 5701 5719 5722 5720 5718 5714 5712 5715 5720 5719 5718 5717 5717 5716 5714 5712 5710 5710 5708 5704 5702 5699 5698 5698 5696 5694 5692 5690 5688 5686 5683 5681 5679 5677
5703 5698 5695 5694 5687 5687 5714 5718 5705 5701 5712 5714 5714 5713 5711 5711 5712 5712 5712 5711 5711 5711 5711 5709 5707 5705 5704 5704 5701 5698 5695 5697 5696 5694 5692 5690 5688 5687 5687 5683 5680 5678 5676 5674
5696 5696 5695 5689 5686 5697 5706 5703 5705 5707 5704 5705 5705 5706 5706 5704 5704 5704 5704 5704 5703 5703 5703 5703 5700 5698 5698 5698 5696 5692 5692 5693 5691 5689 5686 5685 5685 5683 5682 5679 5676 5675 5674 5672
5686 5694 5690 5683 5685 5691 5695 5698 5699 5700 5698 5699 5700 5700 5699 5697 5698 5697 5696 5696 5695 5695 5696 5695 5694 5691 5691 5691 5691 5689 5689 5688 5686 5684 5682 5682 5680 5680 5679 5677 5675 5673 5671 5670
5664 5672 5671 5670 5675 5680 5684 5686 5688 5691 5693 5694 5692 5693 5691 5689 5690 5690 5689 5689 5688 5688 5687 5688 5687 5685 5684 5685 5685 5685 5684 5683 5680 5679 5677 5676 5676 5676 5675 5674 5672 5672 5671 5670
5653 5652 5651 5652 5659 5661 5666 5676 5680 5680 5681 5683 5683 5683 5684 5683 5683 5683 5683 5681 5681 5680 5680 5679 5679 5679 5679 5679 5679 5679 5679 5677 5675 5673 5672 5672 5672 5672 5671 5670 5669 5668 5667 5666